SR2WXM Weather Reports


time (UTC)temp
C
wind
direction
speed
KPH
gust
KPH
rain 1hr
cm
rain 24hr
cm
rain mn
cm
humidity
%
barometer
mb
20260508023003 6 57 6.4 8.0 0.00 0.00 0.00 83 1015.2
20260508021501 6 331 6.4 9.7 0.00 0.00 0.00 82 1015.2
20260508020003 6 2 4.8 6.4 0.00 0.00 0.00 82 1015.2
20260508014502 6 0 3.2 4.8 0.00 0.00 0.00 82 1015.2
20260508013002 6 300 4.8 4.8 0.00 0.00 0.00 81 1015.2
20260508011503 6 25 4.8 8.0 0.00 0.00 0.00 82 1015.2
20260508010002 6 221 1.6 1.6 0.00 0.00 0.00 82 1015.2
20260508004502 6 246 4.8 8.0 0.00 0.00 0.00 81 1015.2
20260508003002 6 347 1.6 8.0 0.00 0.00 0.00 82 1015.2
20260508001503 6 38 3.2 6.4 0.00 0.00 0.00 82 1015.2
20260508000002 6 259 3.2 3.2 0.00 0.00 0.00 82 1015.2
20260507234504 7 299 1.6 1.6 0.00 0.00 0.00 81 1015.2
20260507233002 7 342 1.6 4.8 0.00 0.00 0.00 80 1015.2
20260507231502 7 251 3.2 4.8 0.00 0.00 0.00 80 1015.2
20260507230003 7 306 3.2 4.8 0.00 0.00 0.00 80 1015.2
20260507224502 7 255 3.2 4.8 0.00 0.00 0.00 81 1015.2
20260507223003 7 257 4.8 6.4 0.00 0.00 0.00 82 1015.2
20260507221502 7 287 12.9 16.1 0.00 0.00 0.00 81 1015.2
20260507220004 7 328 4.8 8.0 0.00 0.00 0.00 83 1015.2
20260507214503 7 238 1.6 4.8 0.00 0.00 0.00 82 1014.9
20260507213001 7 31 3.2 6.4 0.00 0.00 0.00 82 1014.9
20260507211503 7 344 6.4 8.0 0.00 0.00 0.00 81 1014.5
20260507210003 7 318 4.8 9.7 0.00 0.00 0.00 82 1014.5
20260507204502 7 322 4.8 8.0 0.00 0.00 0.00 81 1014.5
20260507203002 7 342 1.6 4.8 0.00 0.00 0.00 81 1014.5
20260507201501 7 12 9.7 12.9 0.00 0.00 0.00 80 1014.5
20260507200002 7 35 6.4 9.7 0.00 0.00 0.00 79 1014.2
20260507194502 7 342 12.9 16.1 0.00 0.00 0.00 78 1014.2
20260507193002 7 302 4.8 6.4 0.00 0.00 0.00 78 1014.2
20260507191502 7 359 6.4 9.7 0.00 0.00 0.00 78 1014.2
20260507190002 8 58 4.8 6.4 0.00 0.00 0.00 77 1014.2
20260507184504 8 358 6.4 8.0 0.00 0.00 0.00 76 1013.8
20260507183003 8 17 4.8 6.4 0.00 0.00 0.00 78 1013.8
20260507181503 8 315 9.7 14.5 0.00 0.00 0.00 78 1013.5
20260507180003 10 256 9.7 11.3 0.00 0.00 0.00 77 1013.2
20260507174502 10 0 12.9 14.5 0.00 0.00 0.00 76 1012.5
20260507173002 10 15 9.7 12.9 0.00 0.00 0.00 76 1012.5
20260507171503 10 359 9.7 14.5 0.00 0.00 0.00 76 1012.5
20260507170004 10 241 3.2 4.8 0.00 0.00 0.00 77 1012.1
20260507164502 10 268 4.8 9.7 0.00 0.00 0.00 75 1012.1
20260507163002 10 68 4.8 6.4 0.00 0.00 0.00 76 1012.1
20260507161507 10 247 6.4 9.7 0.00 0.00 0.00 78 1012.1
20260507160004 10 303 3.2 4.8 0.00 0.00 0.00 80 1012.5
20260507154503 10 283 3.2 4.8 0.00 0.00 0.00 80 1012.5
20260507153002 10 267 4.8 8.0 0.00 0.00 0.00 80 1012.5
20260507151502 10 337 9.7 11.3 0.00 0.00 0.00 78 1012.1
20260507150003 10 41 6.4 9.7 0.00 0.00 0.00 78 1012.1
20260507144502 10 281 1.6 3.2 0.00 0.00 0.00 79 1012.1
20260507143002 10 226 3.2 4.8 0.00 0.00 0.00 80 1012.5
20260507141504 10 278 4.8 6.4 0.00 0.00 0.00 80 1012.1
20260507140002 10 4 4.8 4.8 0.00 0.00 0.00 79 1012.1
20260507134503 10 22 8.0 11.3 0.00 0.00 0.00 82 1011.8
20260507133004 10 334 6.4 8.0 0.00 0.00 0.00 85 1011.8
20260507131502 8 48 3.2 4.8 0.00 0.00 0.00 83 1011.8
20260507130004 10 238 4.8 6.4 0.00 0.00 0.00 82 1011.8
20260507124502 8 8 4.8 4.8 0.00 0.00 0.00 85 1011.8
20260507123002 8 289 6.4 8.0 0.00 0.00 0.00 81 1011.8
20260507121503 8 243 1.6 4.8 0.00 0.00 0.00 81 1011.5
20260507120003 8 304 4.8 8.0 0.00 0.00 0.00 82 1011.5
20260507114503 8 338 4.8 6.4 0.00 0.00 0.00 82 1011.5
20260507113002 8 270 6.4 9.7 0.00 0.00 0.00 84 1011.5
20260507111504 8 38 4.8 6.4 0.00 0.00 0.00 85 1011.5
20260507110002 8 252 3.2 4.8 0.00 0.00 0.00 85 1011.5
20260507104502 8 316 4.8 8.0 0.00 0.00 0.00 86 1011.5
20260507103002 7 19 3.2 4.8 0.00 0.00 0.00 86 1011.1
20260507101503 7 49 8.0 11.3 0.00 0.00 0.00 88 1011.1
20260507100002 8 171 4.8 11.3 0.00 0.00 0.00 85 1010.8
20260507094501 8 357 6.4 8.0 0.00 0.00 0.00 86 1010.8
20260507093002 8 235 4.8 6.4 0.00 0.00 0.00 85 1010.5
20260507091502 8 336 12.9 14.5 0.00 0.00 0.00 85 1010.5
20260507090004 8 271 6.4 9.7 0.00 0.00 0.00 86 1010.5
20260507084503 8 336 3.2 4.8 0.00 0.00 0.00 85 1010.5
20260507083002 7 236 4.8 9.7 0.00 0.00 0.00 86 1009.8
20260507081502 8 318 4.8 8.0 0.00 0.00 0.00 85 1009.4
20260507080003 7 6 9.7 12.9 0.00 0.00 0.00 85 1009.4
20260507074506 7 311 4.8 9.7 0.00 0.00 0.00 86 1009.1
20260507073003 7 278 4.8 6.4 0.00 0.00 0.00 87 1009.1
20260507071501 7 353 4.8 8.0 0.00 0.00 0.00 87 1008.8
20260507070005 7 357 9.7 14.5 0.00 0.00 0.00 88 1008.8
20260507064503 7 312 6.4 11.3 0.00 0.00 0.00 89 1008.8
20260507063001 7 331 8.0 12.9 0.00 0.00 0.00 89 1008.8
20260507061502 7 27 9.7 12.9 0.00 0.00 0.00 90 1008.8
20260507060002 7 345 9.7 11.3 0.00 0.00 0.00 89 1008.8
20260507054502 6 303 1.6 4.8 0.00 0.00 0.00 95 1008.4
20260507053003 6 283 12.9 17.7 0.00 0.00 0.00 96 1008.4
20260507051502 6 16 9.7 9.7 0.00 0.00 0.00 97 1008.4
20260507050002 6 336 3.2 4.8 0.00 0.00 0.00 99 1008.1
20260507044504 6 69 6.4 8.0 0.00 0.00 0.00 99 1007.7
20260507043002 6 351 9.7 9.7 0.00 0.00 0.00 99 1007.7
20260507041502 6 330 6.4 8.0 0.00 0.00 0.00 99 1007.7
20260507040002 6 265 8.0 12.9 0.00 0.00 0.00 99 1007.4
20260507034503 6 334 9.7 19.3 0.00 0.00 0.00 98 1006.7
20260507033003 7 300 6.4 8.0 0.00 0.00 0.00 98 1006.7
20260507031503 7 343 3.2 4.8 0.00 0.00 0.00 97 1006.7
20260507030003 7 261 4.8 6.4 0.00 0.00 0.00 98 1006.7
20260507024501 7 355 3.2 4.8 0.00 0.00 0.00 97 1006.7